Home   Weather   Dover   Past weeks

Flag for USA Past Weather in Dover, Delaware, USA — Yesterday and Last 2 Weeks

Now
48 °F

Low clouds.


Feels Like: 44 °F
Forecast: 44 / 47 °F
Wind: 9 mph from Northeast

Location: Dover Air Force Base

Current Time: Jan 22, 2017 at 7:50:26 pm

Latest Report: Jan 22, 2017 at 6:58 pm


Visibility: 5 mi

Pressure: 29.65 "Hg

Humidity: 100%

Dew Point: 48 °F

Location of DoverLocation

Past Weather in Dover — Graph

°F

Dover Temperature Yesterday

Maximum temperature yesterday: 48 °F (at 2:58 pm)
Minimum temperature yesterday: 43 °F (at 12:23 am)
Average temperature yesterday: 45 °F

High & Low Weather Summary for the Past Weeks

 TemperatureHumidityPressure
High68 °F (Jan 12, 1:58 pm)100% (Jan 7, 6:22 pm)30.81 "Hg (Jan 7, 6:22 pm)
Low10 °F (Jan 9, 7:58 am)46% (Jan 8, 3:58 pm)29.60 "Hg (Jan 22, 3:03 pm)
Average39 °F89%30.16 "Hg
* Reported Jan 7 6:22 pm — Jan 22 6:38 pm, Dover, Weather by CustomWeather, © 2017

Note: Actual official high and low records may vary slightly from our data, if they occured in-between our weather recording intervals... More about our weather records

Advertising

Dover Weather History for the Previous 24 Hours

Scroll right to see more
 ConditionsComfort  
Time TempWeatherWind HumidityBarometerVisibility
6:38 pm
Sun, Jan 22
48 °FLow clouds.8 mph100%29.64 "Hg6 mi
6:23 pm48 °FLow clouds.8 mph100%29.64 "Hg7 mi
6:13 pm48 °FLow clouds.10 mph100%29.63 "Hg8 mi
5:58 pm48 °FLow clouds.10 mph100%29.64 "Hg9 mi
5:33 pm48 °FLight rain. Low clouds.8 mph100%29.64 "Hg5 mi
5:21 pm48 °FFog.8 mph100%29.63 "Hg3 mi
5:05 pm48 °FLight rain. Low clouds.7 mph100%29.65 "Hg5 mi
4:58 pm48 °FLight rain. Low clouds.8 mph100%29.67 "Hg9 mi
4:33 pm48 °FLow clouds.9 mph100%29.66 "Hg10 mi
3:58 pm48 °FLow clouds.12 mph100%29.62 "Hg10 mi
3:03 pm48 °FLow clouds.10 mph100%29.60 "Hg9 mi
2:58 pm48 °FLow clouds.12 mph100%29.61 "Hg8 mi
1:58 pm48 °FLow clouds.8 mph100%29.62 "Hg6 mi
12:58 pm48 °FLow clouds.8 mph100%29.63 "Hg8 mi
12:28 pm48 °FLight rain. Low clouds.8 mph100%29.64 "Hg5 mi
11:58 am48 °FFog.10 mph100%29.66 "Hg3 mi
11:33 am48 °FFog.10 mph100%29.67 "Hg2 mi
11:18 am48 °FFog.10 mph100%29.68 "Hg2 mi
11:03 am48 °FFog.8 mph100%29.68 "Hg1 mi
10:58 am48 °FFog.12 mph100%29.70 "Hg0 mi
10:08 am46 °FFog.9 mph100%29.69 "Hg0 mi
9:58 am46 °FFog.12 mph100%29.70 "Hg0 mi
9:38 am46 °FFog.9 mph100%29.69 "Hg1 mi
8:46 am46 °FLow clouds.7 mph100%29.68 "Hg4 mi
8:18 am46 °FLow clouds.7 mph100%29.67 "Hg6 mi
7:58 am46 °FLow clouds.7 mphN/A29.68 "Hg6 mi
7:35 am46 °FLow clouds.5 mph100%29.67 "Hg6 mi
7:14 am45 °FLow clouds.7 mph100%29.65 "Hg7 mi
6:58 am45 °FDrizzle. Low clouds.8 mph100%29.66 "Hg7 mi
5:58 am45 °FLight rain. Low clouds.7 mph100%29.68 "Hg7 mi
5:37 am45 °FLight rain. Low clouds.3 mph100%29.68 "Hg8 mi
5:21 am45 °FLight rain. Mostly cloudy.7 mph100%29.68 "Hg7 mi
4:58 am45 °FLight rain. Mostly cloudy.5 mph100%29.70 "Hg7 mi
4:43 am45 °FLight rain. Low clouds.No wind100%29.68 "Hg7 mi
3:58 am43 °FLight rain. Mostly cloudy.5 mph100%29.70 "Hg5 mi
3:48 am43 °FLight rain. Low clouds.5 mph100%29.70 "Hg6 mi
3:38 am43 °FLight rain. Mostly cloudy.3 mph100%29.71 "Hg7 mi
3:08 am43 °FLight rain. Mostly cloudy.No windN/A29.71 "Hg7 mi
2:58 am43 °FLight rain. Low clouds.6 mph100%29.73 "Hg6 mi
2:43 am43 °FLight rain. Low clouds.5 mph100%29.73 "Hg5 mi
2:28 am43 °FLight rain. Low clouds.6 mph100%29.73 "Hg3 mi
2:18 am43 °FLight rain. Low clouds.3 mph100%29.74 "Hg1 mi
1:58 am43 °FDrizzle. Dense fog.3 mph100%29.75 "Hg1 mi
1:38 am43 °FLight rain. Dense fog.No wind100%29.75 "Hg1 mi
1:23 am43 °FLight rain. Dense fog.5 mph100%29.75 "Hg1 mi
1:03 am43 °FFog.6 mph100%29.74 "Hg1 mi
12:58 am43 °FFog.5 mph100%29.75 "Hg1 mi
12:03 am43 °FFog.No windN/A29.77 "Hg1 mi
11:58 pm
Sat, Jan 21
43 °FFog.3 mph100%29.78 "Hg1 mi
11:43 pm43 °FFog.5 mph100%29.78 "Hg1 mi
11:38 pm43 °FFog.5 mphN/A29.78 "Hg1 mi
11:18 pm45 °FFog.No windN/A29.79 "Hg1 mi
10:58 pm45 °FFog.No windN/A29.80 "Hg1 mi
10:33 pm45 °FFog.3 mphN/A29.79 "Hg1 mi
10:03 pm45 °FFog.No windN/A29.81 "Hg1 mi
9:58 pm45 °FFog.No windN/A29.82 "Hg1 mi
8:58 pm45 °FFog.No windN/A29.82 "Hg1 mi
8:23 pm45 °FFog.No windN/A29.80 "Hg1 mi
7:58 pm45 °FFog.3 mph100%29.81 "Hg1 mi
Weather by CustomWeather, © 2017

See weather overviewHow to use our weather pages